Regional Weather Roundup
Issued by NWS

Home | Current Version | Previous Version | Text Only | Print | Product List | Glossary Off
Versions: 1 2 3 4 5 6 7 8 9 10 11 12 13 14 15 16 17 18 19 20 21 22 23 24 25 26 27 28 29 30 31 32 33 34 35 36 37 38 39 40 41 42 43 44 45 46 47 48 49 50

000
ASUS43 KFSD 310602
RWRSD

WEATHER ROUNDUP FOR SOUTH DAKOTA
NATIONAL WEATHER SERVICE SIOUX FALLS SD
100 AM CDT FRI JUL 31 2015

NOTE: "FAIR" INDICATES FEW OR NO CLOUDS BELOW 12,000 FEET WITH NO
SIGNIFICANT WEATHER AND/OR OBSTRUCTIONS TO VISIBILITY.


SDZ001>005-009-010-012>017-310700-
NORTHWEST AND NORTH CENTRAL SOUTH DAKOTA

CITY           SKY/WX    TMP DP  RH WIND       PRES   REMARKS
BUFFALO          N/A     63  48  58 CALM      30.17R
FAITH            N/A     69  48  47 SE10      30.20R
MOBRIDGE       CLEAR     63  54  72 CALM      30.14R
$$

SDZ012>016-024>037-041>051-057-063-072>074-310700-
SOUTHWEST AND SOUTH CENTRAL SOUTH DAKOTA

CITY           SKY/WX    TMP DP  RH WIND       PRES   REMARKS
RAPID CTY ARPT CLEAR     64  51  62 N7        30.22R
PIERRE         CLEAR     65  54  67 E7        30.14S
CUSTER         CLEAR     57  45  64 NW3       30.37S
ELLSWORTH AFB  CLEAR     67  49  51 N6        30.22R
PHILIP         CLEAR     65  53  65 NE5       30.17R
PINE RIDGE     CLEAR     60  47  61 CALM      30.23S
WINNER         FAIR      73  52  47 S10       30.15S
$$

SDZ004>011-016>023-039-040-310700-
NORTHEAST SOUTH DAKOTA

CITY           SKY/WX    TMP DP  RH WIND       PRES   REMARKS
ABERDEEN       CLEAR     58  54  86 W3        30.13R
WATERTOWN      CLEAR     65  57  75 W7        30.14R
BROOKINGS      MOCLDY    68  59  73 CALM      30.16R
SISSETON         N/A     61  54  77 N5        30.08R
$$

SDZ017-020-022-023-036>040-048>070-310700-
SOUTHEAST SOUTH DAKOTA

CITY           SKY/WX    TMP DP  RH WIND       PRES   REMARKS
SIOUX FALLS    CLEAR     65  60  84 N8        30.14R
HURON          PTCLDY    69  61  75 CALM      30.14R
MITCHELL       CLEAR     67  61  81 NE5       30.14R
YANKTON          N/A    N/A N/A N/A MISG        N/A
$$

ABBREVIATIONS USED IN REMARKS
   TC - TEMPERATURE IN CELSIUS
  WCI - WIND CHILL INDEX
   HX - HEAT INDEX
  VSB - VISIBILITY




USA.gov is the U.S. government's official web portal to all federal, state and local government web resources and services.